TITAN 3C TRANSTAGE DEB, 38699

Orbit data source: Space-Track

TITAN 3C TRANSTAGE DEB, 38699 is space debris in GEO originally from a launch on Thu, 26 Sep 1968 UTC launched from the Air Force Eastern Test Range (AFETR). Debris objects in space refer to the collection of defunct objects orbiting the Earth. Examples of debris include non-operational satellites, rocket bodies, and fragments generated from explosions, collisions, or faulty payload assembly.

Loading next visibility...
Identifier
38699, 1968-081Z
Orbit
GEO
Country
Flag of USUS
Related business
Manufacturer
Unknown
Mission
Spacecraft
Bus & Motor
Unknown
Mass
Unknown
Launch date (UTC)
1968-09-26 (58 years ago)
Launch vehicle
Unknown
Launch site
Air Force Eastern Test Range (AFETR)
Object type
Payload
Rocket body
Debris
Shape & HBR
Unknown shape, 1.1 m
Radar Cross Section
Medium (>0.1 m² and <1 m²)

Expand to show TLE details & history
Last TLE update: 3 months ago

TLE from 3 months ago
0 TITAN 3C TRANSTAGE DEB
1 38699U 68081Z   26165.92244606 -.00000376  00000-0  00000-0 0  9998
2 38699   1.9348  43.3976 0183223 244.9345  45.6298  1.00874929 51835
Epoch: 2026-06-14T22:08Z
TLE epoch observation values (Epoch: 2026-06-14T22:08:19.339Z)
Latitude
-1.8001°
Longitude
100.21524°
Altitude
35,088.158 km
Speed
3.12 km/s
True Right ascension
22h 22m 02s
True Declination
-1° 47' 54"
Sunlit
Object was in daylight at epoch
Visualization orbit readout
Latitude
Unknown
Longitude
Unknown
Altitude
Unknown
Speed
Unknown
Apparent Right ascension
Unknown
Apparent Declination
Unknown
Sunlit
N/A
Visualization observer readout
Local Sidereal Time
03:24:03
Azimuth
Unknown
Elevation
Unknown
Doppler factor
Unknown
Orbital elements
Apogee altitude
36,388.92 km
Perigee altitude
34,849.936 km
Semi-major axis
41,997.565 km
Eccentricity
0.01832
Inclination
1.9348°
RAAN
43.3976°
Arg. of periapsis
244.9345°
True anomaly
47.15489°
Mean anomaly
45.6298°
Eccentric anomaly
46.3899°
Mean motion
0.25218 °/min
Orbital period
1,427.56 mins
BSTAR
0
Loading maneuver chart data...
Computing Atmospheric mass density...

Documentation

Showing up to 5 results
|